TimeCST,TemperatureF,Dew PointF,Humidity,Sea Level PressureIn,VisibilityMPH,Wind Direction,Wind SpeedMPH,Gust SpeedMPH,PrecipitationIn,Events,Conditions,WindDirDegrees,DateUTC
12:15 AM,10.4,1.4,67,30.17,10.0,West,10.4,-,N/A,,Clear,280,2013-01-21 06:15:00
12:35 AM,10.4,1.6,68,30.17,10.0,West,11.5,-,N/A,,Clear,280,2013-01-21 06:35:00
12:55 AM,10.0,2.1,70,30.16,10.0,West,12.7,-,N/A,,Clear,280,2013-01-21 06:55:00
1:15 AM,10.2,3.2,73,30.16,10.0,West,12.7,-,N/A,,Mostly Cloudy,280,2013-01-21 07:15:00
1:35 AM,10.9,3.4,72,30.16,10.0,WNW,17.3,21.9,N/A,,Overcast,290,2013-01-21 07:35:00
1:55 AM,10.9,2.1,68,30.17,10.0,WNW,17.3,27.6,N/A,,Overcast,290,2013-01-21 07:55:00
2:15 AM,10.6,2.8,71,30.16,7.0,West,16.1,-,N/A,,Overcast,280,2013-01-21 08:15:00
2:35 AM,10.4,4.1,76,30.16,5.0,West,11.5,-,N/A,Snow,Light Snow,280,2013-01-21 08:35:00
2:55 AM,10.4,4.5,77,30.15,7.0,WNW,12.7,-,N/A,Snow,Light Snow,290,2013-01-21 08:55:00
3:15 AM,10.2,4.6,78,30.14,7.0,West,10.4,-,N/A,,Overcast,280,2013-01-21 09:15:00
3:35 AM,10.2,4.8,79,30.14,4.0,WNW,11.5,-,N/A,Snow,Light Snow,300,2013-01-21 09:35:00
3:55 AM,10.4,0.3,64,30.13,10.0,WNW,19.6,24.2,N/A,,Overcast,290,2013-01-21 09:55:00
4:15 AM,10.0,-0.2,63,30.13,10.0,WNW,15.0,20.7,N/A,,Overcast,290,2013-01-21 10:15:00
4:35 AM,9.5,1.4,70,30.12,10.0,West,12.7,-,N/A,,Mostly Cloudy,280,2013-01-21 10:35:00
4:55 AM,9.3,1.4,70,30.11,10.0,WNW,15.0,-,N/A,,Overcast,290,2013-01-21 10:55:00
5:15 AM,9.3,1.6,71,30.12,10.0,WNW,11.5,-,N/A,,Overcast,290,2013-01-21 11:15:00
5:35 AM,9.0,1.9,73,30.12,10.0,WNW,18.4,21.9,N/A,,Overcast,300,2013-01-21 11:35:00
5:55 AM,8.4,-0.6,67,30.12,10.0,WNW,18.4,24.2,N/A,,Overcast,300,2013-01-21 11:55:00
6:15 AM,6.8,-1.8,68,30.12,10.0,WNW,10.4,-,N/A,,Scattered Clouds,290,2013-01-21 12:15:00
6:35 AM,6.6,-1.5,69,30.12,10.0,West,13.8,17.3,N/A,,Clear,280,2013-01-21 12:35:00
6:55 AM,7.2,-1.3,68,30.13,10.0,West,19.6,25.3,N/A,,Scattered Clouds,280,2013-01-21 12:55:00
7:15 AM,6.1,-2.0,69,30.13,10.0,WNW,23.0,29.9,N/A,,Mostly Cloudy,290,2013-01-21 13:15:00
7:35 AM,4.3,-5.8,63,30.14,10.0,WNW,19.6,32.2,N/A,,Scattered Clouds,290,2013-01-21 13:35:00
7:55 AM,4.1,-5.3,65,30.15,10.0,WNW,19.6,26.5,N/A,,Clear,300,2013-01-21 13:55:00
8:15 AM,4.6,-4.9,65,30.15,10.0,WNW,21.9,26.5,N/A,,Clear,300,2013-01-21 14:15:00
8:35 AM,4.6,-5.8,62,30.16,10.0,West,20.7,33.4,N/A,,Clear,280,2013-01-21 14:35:00
8:55 AM,4.6,-5.6,63,30.17,10.0,WNW,19.6,33.4,N/A,,Scattered Clouds,290,2013-01-21 14:55:00
9:15 AM,3.9,-6.5,62,30.17,10.0,West,21.9,28.8,N/A,,Scattered Clouds,280,2013-01-21 15:15:00
9:35 AM,4.8,-5.4,63,30.18,10.0,WNW,26.5,33.4,N/A,,Mostly Cloudy,290,2013-01-21 15:35:00
9:55 AM,4.8,-6.7,59,30.18,10.0,WNW,19.6,32.2,N/A,,Scattered Clouds,300,2013-01-21 15:55:00
10:15 AM,5.4,-6.9,57,30.19,10.0,WNW,21.9,29.9,N/A,,Scattered Clouds,290,2013-01-21 16:15:00
10:35 AM,5.5,-7.4,55,30.19,10.0,WNW,24.2,28.8,N/A,,Scattered Clouds,300,2013-01-21 16:35:00
10:55 AM,5.2,-7.8,55,30.19,10.0,WNW,24.2,28.8,N/A,,Scattered Clouds,290,2013-01-21 16:55:00
11:15 AM,5.9,-7.2,55,30.19,10.0,WNW,24.2,33.4,N/A,,Mostly Cloudy,290,2013-01-21 17:15:00
11:35 AM,6.3,-8.0,52,30.19,10.0,WNW,23.0,31.1,N/A,,Scattered Clouds,290,2013-01-21 17:35:00
11:55 AM,6.4,-8.1,51,30.18,10.0,WNW,17.3,29.9,N/A,,Scattered Clouds,300,2013-01-21 17:55:00
12:15 PM,6.8,-8.5,50,30.18,10.0,WNW,19.6,33.4,N/A,,Scattered Clouds,300,2013-01-21 18:15:00
12:35 PM,7.3,-8.1,49,30.17,10.0,WNW,23.0,33.4,N/A,,Clear,290,2013-01-21 18:35:00
12:55 PM,7.7,-8.9,47,30.17,10.0,West,24.2,29.9,N/A,,Clear,280,2013-01-21 18:55:00
1:15 PM,8.1,-9.6,45,30.17,10.0,West,21.9,32.2,N/A,,Clear,270,2013-01-21 19:15:00
1:35 PM,8.4,-9.6,44,30.17,10.0,WNW,24.2,28.8,N/A,,Clear,290,2013-01-21 19:35:00
1:55 PM,8.8,-9.2,44,30.17,10.0,West,25.3,32.2,N/A,,Clear,280,2013-01-21 19:55:00
2:15 PM,8.8,-9.0,44,30.16,10.0,West,26.5,31.1,N/A,,Clear,280,2013-01-21 20:15:00
2:35 PM,9.0,-10.5,41,30.16,10.0,WNW,24.2,33.4,N/A,,Clear,290,2013-01-21 20:35:00
2:55 PM,8.8,-9.9,42,30.17,10.0,West,19.6,28.8,N/A,,Clear,280,2013-01-21 20:55:00
3:15 PM,8.8,-10.1,42,30.18,10.0,West,24.2,27.6,N/A,,Clear,280,2013-01-21 21:15:00
3:35 PM,8.4,-9.9,43,30.18,10.0,WNW,20.7,27.6,N/A,,Clear,290,2013-01-21 21:35:00
3:55 PM,8.2,-9.9,44,30.18,10.0,WNW,18.4,31.1,N/A,,Clear,290,2013-01-21 21:55:00
4:15 PM,7.5,-10.1,45,30.18,10.0,WNW,15.0,25.3,N/A,,Clear,300,2013-01-21 22:15:00
4:35 PM,7.0,-10.3,45,30.19,10.0,WNW,20.7,26.5,N/A,,Clear,290,2013-01-21 22:35:00
4:55 PM,6.1,-10.3,47,30.19,10.0,WNW,18.4,25.3,N/A,,Clear,290,2013-01-21 22:55:00
5:15 PM,5.7,-9.8,49,30.19,10.0,WNW,17.3,21.9,N/A,,Clear,290,2013-01-21 23:15:00
5:35 PM,5.4,-9.4,51,30.20,10.0,WNW,12.7,-,N/A,,Clear,290,2013-01-21 23:35:00
5:55 PM,5.2,-8.3,54,30.20,10.0,West,12.7,19.6,N/A,,Clear,280,2013-01-21 23:55:00
6:15 PM,5.0,-8.1,55,30.20,10.0,West,18.4,25.3,N/A,,Clear,280,2013-01-22 00:15:00
6:35 PM,4.8,-7.8,56,30.20,10.0,West,18.4,25.3,N/A,,Clear,270,2013-01-22 00:35:00
6:55 PM,4.5,-7.8,57,30.21,10.0,West,16.1,24.2,N/A,,Clear,280,2013-01-22 00:55:00
7:15 PM,4.1,-7.6,58,30.21,10.0,West,13.8,21.9,N/A,,Clear,280,2013-01-22 01:15:00
7:35 PM,3.9,-7.1,60,30.21,10.0,West,16.1,-,N/A,,Clear,280,2013-01-22 01:35:00
7:55 PM,3.7,-7.4,60,30.22,10.0,West,16.1,23.0,N/A,,Clear,280,2013-01-22 01:55:00
8:15 PM,3.2,-7.6,61,30.22,10.0,West,18.4,24.2,N/A,,Clear,280,2013-01-22 02:15:00
8:35 PM,3.2,-7.8,60,30.23,10.0,West,16.1,23.0,N/A,,Clear,280,2013-01-22 02:35:00
8:55 PM,3.0,-7.6,61,30.23,10.0,West,17.3,20.7,N/A,,Clear,280,2013-01-22 02:55:00
9:15 PM,2.8,-7.6,62,30.23,10.0,West,16.1,24.2,N/A,,Clear,280,2013-01-22 03:15:00
9:35 PM,2.8,-7.6,62,30.23,10.0,West,19.6,24.2,N/A,,Clear,280,2013-01-22 03:35:00
9:55 PM,2.8,-7.8,61,30.24,10.0,West,18.4,-,N/A,,Clear,280,2013-01-22 03:55:00
10:15 PM,3.0,-8.1,60,30.24,10.0,West,17.3,24.2,N/A,,Clear,280,2013-01-22 04:15:00
10:35 PM,2.7,-8.0,61,30.24,10.0,WNW,13.8,23.0,N/A,,Clear,290,2013-01-22 04:35:00
10:55 PM,2.3,-7.8,63,30.24,10.0,WNW,15.0,18.4,N/A,,Clear,290,2013-01-22 04:55:00
11:15 PM,2.3,-7.6,63,30.24,10.0,WNW,13.8,19.6,N/A,,Clear,290,2013-01-22 05:15:00
11:35 PM,1.9,-7.4,65,30.24,10.0,WNW,9.2,-,N/A,,Clear,290,2013-01-22 05:35:00
11:55 PM,1.2,-6.9,69,30.24,10.0,WNW,10.4,-,N/A,,Clear,300,2013-01-22 05:55:00